Location: The Jewett Observatory
(46.7288°N, 117.1525°W)
Time: 14:57:55
(UTC-07:00)

Amateur Radio Satellites - All Passes

Search period start: 25 August 2016 14:27
Search period end: 26 August 2016 14:27
Location: The Jewett Observatory, 46.7288°N, 117.1525°W

Satellite Date Start Highest point End Downlink Frequencies (MHz)
Time Altitude Azimuth
ITUPSAT 1 25 Aug 14:29:06 14:32:50 22° 93° (E) 14:36:33 437.325
SPROUT 25 Aug 14:39:19 14:42:04 17° 299° (WNW) 14:44:48 437.525
Oscar 19 25 Aug 14:41:53 14:45:31 19° 270° (W) 14:49:10 437.125/150
AIST 2 25 Aug 14:46:37 14:50:08 26° 319° (NW) 14:53:42 435.215
AO-85 25 Aug 14:47:23 14:51:46 85° 232° (SW) 14:55:47 145.980
O/OREOS (USA 219) 25 Aug 14:55:15 14:59:45 89° 302° (WNW) 15:04:19 437.305
SWISSCUBE 25 Aug 15:02:58 15:07:38 51° 100° (E) 15:12:16 437.505
PCSat 25 Aug 15:03:19 15:07:05 19° 327° (NNW) 15:10:52 145.827
TISAT 1 25 Aug 15:06:37 15:10:22 31° 293° (WNW) 15:14:06 437.305
YUBILEINY 25 Aug 15:16:33 15:19:37 12° 46° (NE) 15:22:41 435.215
GONETS M04 25 Aug 15:17:23 15:22:34 17° 308° (NW) 15:27:47
BEESAT 25 Aug 15:20:20 15:25:07 69° 103° (ESE) 15:29:51 436.000
Gurwin Techsat 1B 25 Aug 15:33:28 15:36:26 15° 272° (W) 15:39:26 435.225
ITAMSAT 1 25 Aug 15:49:32 15:54:00 29° 265° (W) 15:58:30 435.822/435.867
MOZHAYETS 4 25 Aug 15:55:48 15:59:40 26° 94° (E) 16:03:30
BRITE-PL 25 Aug 15:56:04 15:57:55 12° 53° (NE) 15:59:49 437.365/2234.400
AO-7 25 Aug 15:58:04 16:06:19 61° 256° (WSW) 16:14:36 29.400- 29.500
ISS 25 Aug 16:01:47 16:04:57 43° 214° (SW) 16:08:04 145.825
ITUPSAT 1 25 Aug 16:06:19 16:10:55 47° 290° (WNW) 16:15:27 437.325
KKS-1 25 Aug 16:07:49 16:11:36 26° 95° (E) 16:15:19 437.445
Cubesat XI-IV 25 Aug 16:22:43 16:24:50 12° 53° (NE) 16:26:57 437.490
HORYU 2 25 Aug 16:30:35 16:34:54 49° 70° (ENE) 16:39:13 437.375
CUTE-I 25 Aug 16:34:17 16:37:18 16° 56° (NE) 16:40:19 437.470
O/OREOS (USA 219) 25 Aug 16:37:25 16:39:53 14° 315° (NW) 16:42:22 437.305
SWISSCUBE 25 Aug 16:41:29 16:45:05 22° 298° (WNW) 16:48:41 437.505
NOAA 15 25 Aug 16:42:19 16:46:14 22° 60° (ENE) 16:50:12 137.62
STARS 25 Aug 16:50:10 16:54:13 34° 97° (E) 16:58:13 437.465
NOAA 18 25 Aug 16:52:53 16:56:57 22° 58° (ENE) 17:01:02 137.9125
Cosmos 2491 25 Aug 16:57:51 17:03:17 19° 74° (ENE) 17:08:43 435.465 / 435.565
BEESAT 25 Aug 16:59:19 17:02:23 17° 301° (WNW) 17:05:27 436.000
Cosmos 2504 25 Aug 17:01:02 17:04:58 15° 55° (NE) 17:08:49 435.465 / 435.565
CUBESAT XI-V 25 Aug 17:09:29 17:13:04 21° 92° (E) 17:16:38 437.345
YUBILEINY 25 Aug 17:10:35 17:19:07 50° 72° (ENE) 17:27:31 435.215
GOMX 1 25 Aug 17:19:17 17:23:42 31° 64° (ENE) 17:28:21 467.674
BRITE-PL 25 Aug 17:30:33 17:35:20 72° 74° (ENE) 17:40:35 437.365/2234.400
MOZHAYETS 4 25 Aug 17:32:43 17:36:55 37° 291° (WNW) 17:41:06
DOVE 4 25 Aug 17:38:23 17:42:26 24° 62° (ENE) 17:46:35 437.250
KKS-1 25 Aug 17:44:08 17:48:14 36° 292° (WNW) 17:52:18 437.445
BEESAT 2 25 Aug 17:56:19 17:59:09 18° 36° (NE) 18:01:59 435.950
AO-7 25 Aug 17:57:53 18:00:50 12° 277° (W) 18:03:46 29.400- 29.500
Cubesat XI-IV 25 Aug 17:58:39 18:03:57 70° 72° (ENE) 18:09:17 437.490
LilacSat-2 25 Aug 18:05:58 18:09:49 77° 74° (ENE) 18:13:40 437.200
HORYU 2 25 Aug 18:08:33 18:11:44 19° 268° (W) 18:14:55 437.375
CUTE-I 25 Aug 18:11:15 18:16:36 88° 74° (ENE) 18:21:58 437.470
BEESAT 3 25 Aug 18:18:47 18:22:33 39° 46° (NE) 18:26:18 437.485
NOAA 15 25 Aug 18:20:24 18:25:35 62° 258° (WSW) 18:30:50 137.62
CANX-2 25 Aug 18:25:53 18:27:59 14° 60° (ENE) 18:30:06 2200.000
STARS 25 Aug 18:26:45 18:30:27 27° 295° (WNW) 18:34:07 437.465
NOAA 18 25 Aug 18:31:35 18:37:07 69° 257° (WSW) 18:42:39 137.9125
CUTE 1.7 + AOD 2 25 Aug 18:32:23 18:34:34 14° 60° (ENE) 18:36:44 437.475
HO-68 25 Aug 18:35:16 18:41:34 35° 59° (ENE) 18:47:54 435.675
CINEMA 3 25 Aug 18:36:10 18:40:09 24° 64° (ENE) 18:44:06 145.822/145.860
PCSat 25 Aug 18:37:26 18:39:04 11° 20° (NNE) 18:40:44 145.827
CUBESAT XI-V 25 Aug 18:46:10 18:50:42 48° 289° (WNW) 18:55:12 437.345
Cosmos 2491 25 Aug 18:49:58 18:58:40 82° 97° (E) 19:07:29 435.465 / 435.565
Cosmos 2504 25 Aug 18:52:35 18:59:56 72° 79° (E) 19:07:04 435.465 / 435.565
COMPASS 1 25 Aug 18:53:31 18:54:55 11° 59° (ENE) 18:56:17 437.405
GOMX 1 25 Aug 18:56:50 19:01:36 41° 264° (W) 19:06:40 467.674
YUBILEINY 25 Aug 19:07:45 19:15:45 41° 274° (W) 19:23:42 435.215
CUBEBUG 2 25 Aug 19:10:53 19:13:40 16° 61° (ENE) 19:16:25 437.445
STRAND 1 25 Aug 19:11:04 19:14:52 21° 92° (E) 19:18:40 437.568
BRITE-PL 25 Aug 19:11:35 19:14:30 16° 274° (W) 19:17:33 437.365/2234.400
DOVE 4 25 Aug 19:14:39 19:19:42 57° 261° (W) 19:24:57 437.250
UWE-3 25 Aug 19:14:43 19:16:18 12° 58° (ENE) 19:17:52 435.000/436.395/437.385
BEESAT 2 25 Aug 19:33:26 19:37:27 76° 236° (SW) 19:41:27 435.950
ZACube-1 25 Aug 19:34:28 19:36:01 12° 58° (ENE) 19:37:34 437.345
AIST 1 25 Aug 19:35:02 19:37:56 17° 67° (ENE) 19:40:50
Cubesat XI-IV 25 Aug 19:41:00 19:44:34 18° 270° (W) 19:48:08 437.490
SEEDS 25 Aug 19:42:25 19:46:24 48° 71° (ENE) 19:50:25 437.485
AIST 2 25 Aug 19:48:34 19:51:03 15° 31° (NNE) 19:53:34 435.215
CUTE-I 25 Aug 19:54:46 19:57:22 14° 273° (W) 19:59:59 437.470
BEESAT 3 25 Aug 19:56:48 20:00:03 24° 245° (WSW) 20:03:17 437.485
CANX-2 25 Aug 19:59:07 20:03:19 71° 258° (WSW) 20:07:32 2200.000
CUTE 1.7 + AOD 2 25 Aug 20:05:41 20:09:53 69° 259° (WSW) 20:14:05 437.475
CINEMA 3 25 Aug 20:12:05 20:16:58 51° 261° (W) 20:21:50 145.822/145.860
PCSat 25 Aug 20:19:21 20:24:15 33° 44° (NE) 20:29:07 145.827
AAUSAT CUBESAT 2 25 Aug 20:19:56 20:24:01 68° 74° (ENE) 20:28:07 437.432
HO-68 25 Aug 20:21:57 20:29:00 57° 259° (WSW) 20:36:05 435.675
COMPASS 1 25 Aug 20:25:42 20:29:50 83° 258° (WSW) 20:34:00 437.405
HUMSAT D 25 Aug 20:40:24 20:41:45 11° 59° (ENE) 20:43:07 437.325/437.525
Oscar 11 25 Aug 20:42:49 20:46:58 50° 71° (ENE) 20:51:09 145.826/435.025
DELFI C3 25 Aug 20:43:35 20:46:35 21° 65° (ENE) 20:49:37 145.870
CUBEBUG 2 25 Aug 20:45:04 20:49:46 72° 258° (WSW) 20:54:23 437.445
FUNcube-1 25 Aug 20:47:06 20:51:25 52° 72° (ENE) 20:55:41 145.935
Cosmos 2504 25 Aug 20:47:11 20:52:28 22° 280° (W) 20:57:41 435.465 / 435.565
UWE-3 25 Aug 20:47:28 20:52:04 85° 76° (ENE) 20:56:35 435.000/436.395/437.385
STRAND 1 25 Aug 20:49:25 20:54:25 56° 290° (WNW) 20:59:23 437.568
Cosmos 2491 25 Aug 20:49:42 20:56:39 26° 299° (WNW) 21:03:40 435.465 / 435.565
PRISM 25 Aug 21:03:13 21:06:52 28° 96° (E) 21:10:30 437.425
ZACube-1 25 Aug 21:07:09 21:11:39 88° 82° (E) 21:16:04 437.345
AUBIESAT-1 25 Aug 21:08:19 21:10:42 14° 52° (NE) 21:13:05 437.475
M-CUBED/EXP-1 PRIME 25 Aug 21:11:12 21:14:18 18° 54° (NE) 21:17:24 437.505
AIST 1 25 Aug 21:11:35 21:15:54 53° 266° (W) 21:20:11
SEEDS 25 Aug 21:19:37 21:22:23 17° 269° (W) 21:25:08 437.485
GONETS M04 25 Aug 21:26:00 21:31:52 19° 54° (NE) 21:37:41
AIST 2 25 Aug 21:26:04 21:30:16 73° 51° (NE) 21:34:27 435.215
ANTELSAT 25 Aug 21:51:50 21:52:43 11° 87° (E) 21:53:35 437.575/2403.000
AAUSAT CUBESAT 2 25 Aug 21:58:22 21:59:58 12° 272° (W) 22:01:34 437.432
CUBEBUG 1 25 Aug 21:59:05 21:59:43 10° 56° (NE) 22:00:22 437.445
PCSat 25 Aug 22:02:38 22:07:51 49° 244° (WSW) 22:13:03 145.827
Cosmos 2499 25 Aug 22:04:20 22:09:08 19° 59° (ENE) 22:13:52 435.465 / 435.565
HUMSAT D 25 Aug 22:12:35 22:16:46 85° 257° (WSW) 22:20:56 437.325/437.525
DELFI C3 25 Aug 22:17:38 22:21:15 35° 263° (W) 22:24:54 145.870
ESTCUBE 1 25 Aug 22:19:38 22:23:10 24° 64° (ENE) 22:26:45 437.505/2401.250
Oscar 11 25 Aug 22:20:30 22:23:23 18° 269° (W) 22:26:19 145.826/435.025
TIGRISAT 25 Aug 22:21:24 22:24:41 21° 92° (E) 22:27:55 435.000
FUNcube-1 25 Aug 22:24:56 22:27:57 18° 269° (W) 22:30:56 145.935
UWE-3 25 Aug 22:27:37 22:29:05 11° 273° (W) 22:30:33 435.000/436.395/437.385
AISAT 25 Aug 22:36:57 22:40:19 21° 63° (ENE) 22:43:41 437.250
PRISM 25 Aug 22:38:30 22:42:09 29° 293° (WNW) 22:45:46 437.425
AUBIESAT-1 25 Aug 22:39:49 22:44:27 85° 73° (ENE) 22:49:08 437.475
M-CUBED/EXP-1 PRIME 25 Aug 22:43:35 22:48:15 75° 251° (WSW) 22:53:00 437.505
ZACube-1 25 Aug 22:47:48 22:48:31 10° 273° (W) 22:49:15 437.345
UNISAT 6 25 Aug 22:48:45 22:52:52 41° 98° (E) 22:56:55 437.425
UKube-1 25 Aug 22:57:50 23:00:47 18° 61° (ENE) 23:03:45 .
AIST 2 25 Aug 23:06:02 23:08:13 14° 250° (WSW) 23:10:23 435.215
CUSAT 1 25 Aug 23:14:27 23:16:31 17° 86° (E) 23:18:53 437.405
GONETS M04 25 Aug 23:21:35 23:30:29 74° 79° (ENE) 23:39:20
O/OREOS (USA 219) 25 Aug 23:23:19 23:27:35 36° 57° (ENE) 23:31:50 437.305
VELOX 1 25 Aug 23:23:20 23:27:39 54° 71° (ENE) 23:32:02 145.980
ANTELSAT 25 Aug 23:25:43 23:30:03 81° 285° (WNW) 23:34:19 437.575/2403.000
SO-50 25 Aug 23:26:41 23:29:59 18° 111° (ESE) 23:33:17 436.795
CUBEBUG 1 25 Aug 23:30:49 23:35:12 76° 74° (ENE) 23:39:39 437.445
50 SAT 25 Aug 23:42:32 23:46:06 86° 76° (ENE) 23:49:43 437.505
DX 1 25 Aug 23:47:39 23:51:59 68° 72° (ENE) 23:56:21 434.975-435.025
QB50P1 25 Aug 23:47:53 23:51:32 27° 95° (E) 23:55:08 145.935-145.965
RS-15 25 Aug 23:49:01 23:54:51 15° 93° (E) 00:00:47 29.354- 29.394
DANDE 25 Aug 23:53:15 23:53:54 11° 88° (E) 23:54:33 436.750
ESTCUBE 1 25 Aug 23:55:31 23:59:45 41° 262° (W) 00:04:03 437.505/2401.250
Cosmos 2499 25 Aug 23:56:12 00:03:21 89° 268° (W) 00:10:28 435.465 / 435.565
BUGSAT 1 25 Aug 23:57:26 23:59:31 13° 89° (E) 00:01:35 437.445
TIGRISAT 25 Aug 23:57:31 00:01:35 40° 290° (WNW) 00:05:33 435.000
POPSAT HIP 1 25 Aug 23:57:33 00:01:25 33° 97° (E) 00:05:13 437.405
SPROUT 25 Aug 23:58:11 00:02:26 63° 73° (ENE) 00:06:44 437.525
JAS-2 26 Aug 00:03:18 00:09:01 29° 94° (E) 00:15:14 435.910
AISAT 26 Aug 00:12:12 00:16:29 47° 261° (W) 00:20:50 437.250
AUBIESAT-1 26 Aug 00:17:24 00:19:27 13° 267° (W) 00:21:29 437.475
TISAT 1 26 Aug 00:25:18 00:29:00 30° 67° (ENE) 00:32:42 437.305
UNISAT 6 26 Aug 00:26:03 00:29:20 22° 296° (WNW) 00:32:36 437.425
QB50P2 26 Aug 00:27:11 00:31:27 76° 103° (ESE) 00:35:39 145.880/145.840
DUCHIFAT 1 26 Aug 00:27:31 00:31:43 63° 101° (E) 00:35:52 145.980
POLYITAN 1 26 Aug 00:29:44 00:33:59 76° 104° (ESE) 00:38:10 437.675
UKube-1 26 Aug 00:32:13 00:36:27 54° 259° (W) 00:40:43 .
SWISSCUBE 26 Aug 00:37:50 00:39:44 12° 56° (NE) 00:41:38 437.505
NANOSAT C BR1 26 Aug 00:40:18 00:44:33 88° 294° (WNW) 00:48:46 145.865
BEESAT 26 Aug 00:54:09 00:56:56 16° 58° (ENE) 00:59:44 436.000
CUSAT 1 26 Aug 00:56:00 00:58:22 21° 295° (WNW) 01:01:09 437.405
VELOX 1 26 Aug 01:01:30 01:04:28 17° 269° (W) 01:07:26 145.980
O/OREOS (USA 219) 26 Aug 01:02:56 01:06:52 28° 256° (WSW) 01:10:49 437.305
SO-50 26 Aug 01:05:08 01:09:59 71° 308° (NW) 01:14:48 436.795
ANTELSAT 26 Aug 01:05:24 01:06:00 10° 304° (WNW) 01:06:37 437.575/2403.000
CUBEBUG 1 26 Aug 01:10:17 01:12:02 12° 272° (W) 01:13:48 437.445
Oscar 19 26 Aug 01:10:20 01:13:48 18° 90° (E) 01:17:14 437.125/150
GONETS M04 26 Aug 01:19:26 01:26:27 27° 280° (W) 01:33:27
QB50P1 26 Aug 01:23:35 01:27:19 31° 293° (WNW) 01:31:01 145.935-145.965
DX 1 26 Aug 01:26:27 01:28:38 14° 271° (W) 01:30:51 434.975-435.025
BUGSAT 1 26 Aug 01:31:11 01:35:19 61° 288° (WNW) 01:39:22 437.445
POPSAT HIP 1 26 Aug 01:33:35 01:37:05 25° 294° (WNW) 01:40:33 437.405
DANDE 26 Aug 01:34:21 01:36:22 20° 291° (WNW) 01:38:31 436.750
SPROUT 26 Aug 01:36:28 01:38:48 14° 271° (W) 01:41:09 437.525
ITUPSAT 1 26 Aug 01:38:21 01:42:40 36° 67° (ENE) 01:47:01 437.325
JAS-2 26 Aug 01:47:53 01:54:21 62° 290° (WNW) 02:01:34 435.910
Cosmos 2499 26 Aug 01:51:18 01:55:20 16° 283° (WNW) 01:59:23 435.465 / 435.565
RS-15 26 Aug 01:53:15 02:04:33 64° 116° (ESE) 02:16:28 29.354- 29.394
TISAT 1 26 Aug 02:00:53 02:04:36 29° 264° (W) 02:08:21 437.305
Gurwin Techsat 1B 26 Aug 02:04:19 02:08:44 26° 93° (E) 02:13:05 435.225
DUCHIFAT 1 26 Aug 02:04:31 02:06:57 15° 299° (WNW) 02:09:20 145.980
QB50P2 26 Aug 02:04:41 02:06:40 13° 301° (WNW) 02:08:39 145.880/145.840
POLYITAN 1 26 Aug 02:07:16 02:09:12 13° 301° (WNW) 02:11:07 437.675
SWISSCUBE 26 Aug 02:12:00 02:16:45 82° 75° (ENE) 02:21:32 437.505
NANOSAT C BR1 26 Aug 02:18:29 02:19:36 11° 303° (WNW) 02:20:43 145.865
ITAMSAT 1 26 Aug 02:22:02 02:23:15 11° 86° (E) 02:24:28 435.822/435.867
BEESAT 26 Aug 02:29:23 02:34:08 77° 257° (WSW) 02:38:56 436.000
SO-50 26 Aug 02:48:01 02:51:19 18° 330° (NNW) 02:54:35 436.795
Oscar 19 26 Aug 02:48:25 02:53:37 68° 288° (WNW) 02:58:47 437.125/150
MOZHAYETS 4 26 Aug 03:00:16 03:04:23 35° 68° (ENE) 03:08:31
Cosmos 2491 26 Aug 03:03:00 03:05:42 11° 46° (NE) 03:08:25 435.465 / 435.565
PHONESAT 2.4 26 Aug 03:05:23 03:06:53 13° 159° (SSE) 03:08:24 2401.200-2431.200
KKS-1 26 Aug 03:08:20 03:12:24 34° 67° (ENE) 03:16:28 437.445
ITUPSAT 1 26 Aug 03:16:25 03:20:33 29° 265° (W) 03:24:43 437.325
JAS-2 26 Aug 03:35:11 03:38:21 14° 308° (NW) 03:41:40 435.910
Gurwin Techsat 1B 26 Aug 03:43:48 03:48:55 48° 291° (WNW) 03:53:59 435.225
STARS 26 Aug 03:49:12 03:53:25 44° 70° (ENE) 03:57:39 437.465
SWISSCUBE 26 Aug 03:53:08 03:55:10 13° 272° (W) 03:57:13 437.505
AO-7 26 Aug 03:56:25 04:04:07 40° 98° (E) 04:11:44 29.400- 29.500
ITAMSAT 1 26 Aug 03:58:21 04:03:34 79° 104° (ESE) 04:08:45 435.822/435.867
RS-15 26 Aug 04:06:07 04:17:33 53° 323° (NW) 04:29:33 29.354- 29.394
CUBESAT XI-V 26 Aug 04:15:26 04:19:22 28° 66° (ENE) 04:23:19 437.345
Oscar 19 26 Aug 04:30:13 04:31:59 12° 307° (NW) 04:33:46 437.125/150
MOZHAYETS 4 26 Aug 04:37:41 04:41:36 28° 266° (W) 04:45:32
PHONESAT 2.4 26 Aug 04:40:10 04:42:40 24° 176° (S) 04:45:09 2401.200-2431.200
KKS-1 26 Aug 04:45:10 04:49:00 27° 265° (W) 04:52:52 437.445
Cosmos 2491 26 Aug 04:56:48 05:05:19 49° 72° (ENE) 05:13:47 435.465 / 435.565
AO-85 26 Aug 05:04:44 05:08:23 19° 111° (ESE) 05:11:54 145.980
STARS 26 Aug 05:26:37 05:29:58 21° 267° (W) 05:33:21 437.465
BRITE-PL 26 Aug 05:32:40 05:37:10 24° 90° (E) 05:41:37 437.365/2234.400
ITAMSAT 1 26 Aug 05:39:08 05:42:25 17° 303° (WNW) 05:45:42 435.822/435.867
Cosmos 2504 26 Aug 05:47:44 05:49:33 11° 72° (ENE) 05:51:21 435.465 / 435.565
AO-7 26 Aug 05:49:07 05:57:08 55° 298° (WNW) 06:05:07 29.400- 29.500
CUBESAT XI-V 26 Aug 05:52:25 05:56:38 35° 264° (W) 06:00:54 437.345
HORYU 2 26 Aug 05:54:50 05:59:16 66° 102° (ESE) 06:03:38 437.375
Cubesat XI-IV 26 Aug 06:13:40 06:17:45 22° 92° (E) 06:21:48 437.490
SO-50 26 Aug 06:14:33 06:16:28 12° 20° (NNE) 06:18:23 436.795
YUBILEINY 26 Aug 06:14:50 06:23:15 52° 89° (E) 06:31:42 435.215
PHONESAT 2.4 26 Aug 06:16:16 06:18:32 20° 192° (SSW) 06:20:48 2401.200-2431.200
RS-15 26 Aug 06:23:02 06:33:39 33° 356° (N) 06:44:30 29.354- 29.394
CUTE-I 26 Aug 06:25:48 06:30:20 28° 94° (E) 06:34:51 437.470
STRAND 1 26 Aug 06:29:23 06:34:08 40° 67° (ENE) 06:38:53 437.568
NOAA 15 26 Aug 06:32:35 06:37:35 40° 98° (E) 06:42:33 137.62
AO-85 26 Aug 06:43:09 06:48:25 75° 308° (NW) 06:53:23 145.980
NOAA 18 26 Aug 06:50:50 06:56:00 40° 98° (E) 07:01:06 137.9125
Cosmos 2491 26 Aug 06:53:57 07:02:04 44° 274° (W) 07:10:13 435.465 / 435.565
GOMX 1 26 Aug 06:55:24 07:00:48 55° 99° (E) 07:05:57 467.674
BRITE-PL 26 Aug 07:10:22 07:16:00 60° 288° (WNW) 07:21:33 437.365/2234.400
LilacSat-2 26 Aug 07:10:41 07:14:29 79° 102° (ESE) 07:18:15 437.200
DOVE 4 26 Aug 07:11:08 07:15:52 36° 95° (E) 07:20:21 437.250
HORYU 2 26 Aug 07:32:40 07:35:20 16° 300° (WNW) 07:37:59 437.375
Cosmos 2504 26 Aug 07:33:03 07:41:16 58° 92° (E) 07:48:57 435.465 / 435.565
CANX-2 26 Aug 07:42:13 07:44:56 16° 91° (E) 07:47:38 2200.000
AO-7 26 Aug 07:43:34 07:48:08 16° 321° (NW) 07:52:41 29.400- 29.500
HO-68 26 Aug 07:46:55 07:52:42 25° 92° (E) 07:58:26 435.675
CUTE 1.7 + AOD 2 26 Aug 07:48:38 07:51:24 17° 91° (E) 07:54:09 437.475
Cubesat XI-IV 26 Aug 07:52:58 07:58:11 57° 290° (WNW) 08:03:22 437.490
SO-50 26 Aug 07:53:55 07:58:17 38° 43° (NE) 08:02:31 436.795
PRISM 26 Aug 07:55:18 07:58:53 30° 67° (ENE) 08:02:30 437.425
CINEMA 3 26 Aug 08:04:27 08:08:36 32° 95° (E) 08:12:33 145.822/145.860
CUTE-I 26 Aug 08:05:31 08:10:33 44° 293° (WNW) 08:15:34 437.470
COMPASS 1 26 Aug 08:07:13 08:09:11 13° 89° (E) 08:11:09 437.405
STRAND 1 26 Aug 08:08:59 08:13:24 29° 265° (W) 08:17:51 437.568
YUBILEINY 26 Aug 08:12:05 08:20:17 41° 291° (WNW) 08:28:33 435.215
NOAA 15 26 Aug 08:12:34 08:17:15 32° 296° (WNW) 08:21:54 137.62
AO-85 26 Aug 08:26:02 08:29:39 19° 328° (NNW) 08:33:06 145.980
NOAA 18 26 Aug 08:31:42 08:36:34 34° 297° (WNW) 08:41:24 137.9125
GOMX 1 26 Aug 08:34:05 08:38:29 25° 298° (WNW) 08:42:44 467.674
CUBEBUG 2 26 Aug 08:34:09 08:37:11 19° 91° (E) 08:40:08 437.445
UWE-3 26 Aug 08:36:06 08:38:05 13° 88° (E) 08:40:01 435.000/436.395/437.385
RS-15 26 Aug 08:38:32 08:50:12 45° 30° (NNE) 09:01:51 29.354- 29.394
ISS 26 Aug 08:45:02 08:46:22 12° 133° (SE) 08:47:43 145.825
LilacSat-2 26 Aug 08:47:38 08:48:12 10° 300° (WNW) 08:48:46 437.200
DOVE 4 26 Aug 08:48:55 08:53:28 32° 294° (WNW) 08:57:49 437.250
BRITE-PL 26 Aug 08:51:25 08:53:20 12° 307° (NW) 08:55:15 437.365/2234.400
ANTELSAT 26 Aug 08:52:17 08:55:07 16° 61° (ENE) 08:57:53 437.575/2403.000
ZACube-1 26 Aug 08:54:22 08:56:21 13° 89° (E) 08:58:19 437.345
SEEDS 26 Aug 08:58:41 09:02:52 64° 100° (E) 09:07:03 437.485
CANX-2 26 Aug 09:16:59 09:21:06 51° 288° (WNW) 09:25:12 2200.000
TIGRISAT 26 Aug 09:22:22 09:26:18 28° 66° (ENE) 09:30:10 435.000
CUTE 1.7 + AOD 2 26 Aug 09:23:26 09:27:32 50° 288° (WNW) 09:31:38 437.475
Cosmos 2504 26 Aug 09:27:33 09:35:01 35° 292° (WNW) 09:42:04 435.465 / 435.565
PRISM 26 Aug 09:30:43 09:34:11 26° 265° (W) 09:37:42 437.425
HO-68 26 Aug 09:33:53 09:41:01 70° 291° (WNW) 09:48:07 435.675
AAUSAT CUBESAT 2 26 Aug 09:34:32 09:38:43 87° 103° (ESE) 09:42:53 437.432
SO-50 26 Aug 09:34:34 09:38:43 34° 243° (WSW) 09:42:45 436.795
CUSAT 1 26 Aug 09:40:04 09:45:33 35° 71° (ENE) 09:52:08 437.405
COMPASS 1 26 Aug 09:41:01 09:45:10 64° 286° (WNW) 09:49:19 437.405
CINEMA 3 26 Aug 09:41:41 09:45:40 29° 294° (WNW) 09:49:29 145.822/145.860
AIST 1 26 Aug 09:43:16 09:47:36 77° 96° (E) 09:52:00
BEESAT 3 26 Aug 09:49:36 09:52:49 25° 116° (ESE) 09:56:04 437.485
UNISAT 6 26 Aug 09:49:47 09:54:17 54° 72° (ENE) 09:58:42 437.425
QB50P2 26 Aug 09:50:43 09:51:20 10° 57° (ENE) 09:51:57 145.880/145.840
DELFI C3 26 Aug 09:52:19 09:55:31 23° 94° (E) 09:58:44 145.870
POLYITAN 1 26 Aug 09:53:05 09:53:51 10° 57° (ENE) 09:54:37 437.675
HUMSAT D 26 Aug 09:54:55 09:56:34 12° 89° (E) 09:58:15 437.325/437.525
NANOSAT C BR1 26 Aug 10:02:13 10:03:54 12° 58° (ENE) 10:05:35 145.865
Oscar 11 26 Aug 10:02:54 10:07:13 70° 102° (ESE) 10:11:31 145.826/435.025
FUNcube-1 26 Aug 10:08:18 10:12:28 74° 102° (ESE) 10:16:35 145.935
CUBEBUG 2 26 Aug 10:09:59 10:14:04 44° 290° (WNW) 10:18:03 437.445
UWE-3 26 Aug 10:10:49 10:15:01 63° 287° (WNW) 10:19:07 435.000/436.395/437.385
ISS 26 Aug 10:19:03 10:22:19 70° 150° (SSE) 10:25:36 145.825
DANDE 26 Aug 10:22:11 10:26:28 27° 72° (ENE) 10:31:47 436.750
JAS-2 26 Aug 10:22:11 10:24:54 14° 52° (NE) 10:27:41 435.910
ANTELSAT 26 Aug 10:26:45 10:31:20 67° 258° (WSW) 10:35:52 437.575/2403.000
ZACube-1 26 Aug 10:28:58 10:33:06 62° 287° (WNW) 10:37:11 437.345
GONETS M04 26 Aug 10:34:03 10:39:05 17° 73° (ENE) 10:44:07
SEEDS 26 Aug 10:35:44 10:38:06 15° 299° (WNW) 10:40:27 437.485
QB50P1 26 Aug 10:42:53 10:46:38 30° 67° (ENE) 10:50:23 145.935-145.965
Cosmos 2499 26 Aug 10:47:42 10:51:16 14° 75° (ENE) 10:54:44 435.465 / 435.565
BUGSAT 1 26 Aug 10:49:49 10:52:23 16° 61° (ENE) 10:54:57 437.445
RS-15 26 Aug 10:51:40 11:04:05 82° 237° (WSW) 11:16:17 29.354- 29.394
POPSAT HIP 1 26 Aug 10:52:30 10:56:26 37° 69° (ENE) 11:00:23 437.405
TIGRISAT 26 Aug 10:58:40 11:02:53 35° 263° (W) 11:07:03 435.000
BEESAT 2 26 Aug 11:04:59 11:08:55 77° 125° (SE) 11:12:55 435.950
PCSat 26 Aug 11:06:43 11:09:19 14° 103° (ESE) 11:11:57 145.827
AAUSAT CUBESAT 2 26 Aug 11:12:15 11:13:33 11° 301° (WNW) 11:14:50 437.432
CUBEBUG 1 26 Aug 11:18:39 11:20:16 12° 88° (E) 11:21:52 437.445
DUCHIFAT 1 26 Aug 11:21:42 11:25:55 67° 74° (ENE) 11:30:10 145.980
CUSAT 1 26 Aug 11:21:48 11:27:40 49° 265° (W) 11:34:47 437.405
QB50P2 26 Aug 11:22:07 11:26:24 81° 73° (ENE) 11:30:42 145.880/145.840
HO-68 26 Aug 11:23:10 11:27:33 18° 312° (NW) 11:31:54 435.675
AIST 1 26 Aug 11:23:58 11:25:48 12° 296° (WNW) 11:27:39
POLYITAN 1 26 Aug 11:24:38 11:28:56 82° 73° (ENE) 11:33:14 437.675
BEESAT 3 26 Aug 11:26:38 11:30:20 38° 314° (NW) 11:34:03 437.485
DELFI C3 26 Aug 11:26:50 11:30:26 33° 291° (WNW) 11:34:02 145.870
UNISAT 6 26 Aug 11:28:07 11:31:17 18° 269° (W) 11:34:26 437.425
HUMSAT D 26 Aug 11:28:36 11:32:39 65° 286° (WNW) 11:36:42 437.325/437.525
NANOSAT C BR1 26 Aug 11:34:43 11:39:00 84° 259° (WSW) 11:43:17 145.865
Oscar 11 26 Aug 11:40:30 11:42:49 14° 300° (WNW) 11:45:09 145.826/435.025
ESTCUBE 1 26 Aug 11:44:55 11:49:01 32° 96° (E) 11:53:06 437.505/2401.250
FUNcube-1 26 Aug 11:46:18 11:48:09 13° 301° (WNW) 11:49:59 145.935
AUBIESAT-1 26 Aug 11:51:00 11:54:53 37° 102° (ESE) 11:58:30 437.475
AO-85 26 Aug 11:53:47 11:54:46 11° 17° (NNE) 11:55:43 145.980
M-CUBED/EXP-1 PRIME 26 Aug 11:55:14 11:59:25 52° 105° (ESE) 12:03:14 437.505
ISS 26 Aug 11:55:51 11:58:58 38° 350° (N) 12:02:05 145.825
AISAT 26 Aug 11:59:39 12:03:26 26° 95° (E) 12:07:11 437.250
JAS-2 26 Aug 12:03:51 12:09:02 84° 74° (ENE) 12:14:38 435.910
DANDE 26 Aug 12:04:25 12:09:15 48° 263° (W) 12:15:35 436.750
UKube-1 26 Aug 12:17:01 12:20:15 20° 93° (E) 12:23:27 .
QB50P1 26 Aug 12:18:40 12:22:23 28° 265° (W) 12:26:07 145.935-145.965
BUGSAT 1 26 Aug 12:23:05 12:27:17 62° 259° (WSW) 12:31:32 437.445
GONETS M04 26 Aug 12:25:36 12:34:19 77° 95° (E) 12:43:09
POPSAT HIP 1 26 Aug 12:28:53 12:32:20 23° 266° (W) 12:35:47 437.405
Oscar 19 26 Aug 12:29:30 12:34:08 34° 65° (ENE) 12:38:48 437.125/150
Cosmos 2499 26 Aug 12:34:58 12:43:04 70° 95° (E) 12:50:35 435.465 / 435.565
50 SAT 26 Aug 12:41:19 12:44:57 71° 102° (ESE) 12:48:36 437.505
BEESAT 2 26 Aug 12:44:28 12:47:15 18° 325° (NW) 12:50:02 435.950
PCSat 26 Aug 12:46:27 12:51:53 85° 122° (ESE) 12:57:20 145.827
VELOX 1 26 Aug 12:46:43 12:51:12 74° 103° (ESE) 12:55:39 145.980
CUBEBUG 1 26 Aug 12:52:39 12:57:07 79° 287° (WNW) 13:01:32 437.445
DUCHIFAT 1 26 Aug 13:00:03 13:02:04 13° 271° (W) 13:04:06 145.980
QB50P2 26 Aug 13:01:39 13:02:46 11° 272° (W) 13:03:53 145.880/145.840
AIST 2 26 Aug 13:04:03 13:08:05 59° 122° (ESE) 13:12:11 435.215
POLYITAN 1 26 Aug 13:04:18 13:05:18 11° 272° (W) 13:06:19 437.675
RS-15 26 Aug 13:05:43 13:14:42 25° 261° (W) 13:23:36 29.354- 29.394
DX 1 26 Aug 13:08:56 13:13:22 85° 104° (ESE) 13:17:46 434.975-435.025
AO-7 26 Aug 13:09:31 13:15:03 20° 43° (NE) 13:20:34 29.400- 29.500
SPROUT 26 Aug 13:16:59 13:21:19 82° 106° (ESE) 13:25:34 437.525
ESTCUBE 1 26 Aug 13:21:50 13:25:46 30° 294° (WNW) 13:29:42 437.505/2401.250
AUBIESAT-1 26 Aug 13:25:48 13:29:08 23° 302° (WNW) 13:32:17 437.475
Gurwin Techsat 1B 26 Aug 13:27:58 13:33:06 53° 70° (ENE) 13:38:18 435.225
M-CUBED/EXP-1 PRIME 26 Aug 13:30:31 13:33:31 19° 305° (NW) 13:36:22 437.505
AO-85 26 Aug 13:32:40 13:36:40 32° 41° (NE) 13:40:24 145.980
ISS 26 Aug 13:32:49 13:35:55 37° 10° (N) 13:39:01 145.825
AISAT 26 Aug 13:35:52 13:39:58 36° 292° (WNW) 13:44:02 437.250
O/OREOS (USA 219) 26 Aug 13:39:16 13:42:45 23° 103° (ESE) 13:46:18 437.305
ITAMSAT 1 26 Aug 13:41:11 13:45:20 25° 61° (ENE) 13:49:28 435.822/435.867
TISAT 1 26 Aug 13:41:26 13:45:17 33° 97° (E) 13:49:06 437.305
UKube-1 26 Aug 13:52:22 13:56:30 44° 290° (WNW) 14:00:37 .
JAS-2 26 Aug 13:52:40 13:55:06 13° 275° (W) 13:57:35 435.910
Oscar 19 26 Aug 14:08:43 14:13:25 35° 264° (W) 14:18:11 437.125/150
SWISSCUBE 26 Aug 14:10:22 14:13:26 17° 90° (E) 14:16:28 437.505
50 SAT 26 Aug 14:17:08 14:18:01 11° 300° (WNW) 14:18:53 437.505
